TimeEDT,TemperatureF,Dew PointF,Humidity,Sea Level PressureIn,VisibilityMPH,Wind Direction,Wind SpeedMPH,Gust SpeedMPH,PrecipitationIn,Events,Conditions,WindDirDegrees,DateUTC
12:52 AM,33.1,30.9,92,30.22,10.0,Calm,Calm,-,N/A,,Clear,0,2013-05-28 04:52:00
1:47 AM,33.8,30.2,87,30.19,10.0,Calm,Calm,-,N/A,,Partly Cloudy,0,2013-05-28 05:47:00
1:52 AM,32.0,30.0,92,30.22,10.0,Calm,Calm,-,N/A,,Partly Cloudy,0,2013-05-28 05:52:00
2:22 AM,30.2,28.4,93,30.20,10.0,Calm,Calm,-,N/A,,Mostly Cloudy,0,2013-05-28 06:22:00
2:27 AM,30.2,28.4,93,30.20,1.2,Calm,Calm,-,N/A,,Mostly Cloudy,0,2013-05-28 06:27:00
2:34 AM,32.0,30.2,93,30.20,0.5,Calm,Calm,-,N/A,Fog,Fog,0,2013-05-28 06:34:00
2:42 AM,30.2,28.4,93,30.20,1.8,Calm,Calm,-,N/A,,Mostly Cloudy,0,2013-05-28 06:42:00
2:44 AM,30.2,28.4,93,30.20,3.0,Calm,Calm,-,N/A,,Mostly Cloudy,0,2013-05-28 06:44:00
2:52 AM,30.9,28.9,92,30.22,10.0,Calm,Calm,-,N/A,,Mostly Cloudy,0,2013-05-28 06:52:00
2:59 AM,32.0,30.2,93,30.20,10.0,Calm,Calm,-,N/A,,Partly Cloudy,0,2013-05-28 06:59:00
3:17 AM,30.2,30.2,100,30.19,8.0,Calm,Calm,-,N/A,,Mostly Cloudy,0,2013-05-28 07:17:00
3:22 AM,30.2,30.2,100,30.20,1.2,Calm,Calm,-,N/A,,Mostly Cloudy,0,2013-05-28 07:22:00
3:30 AM,30.2,28.4,93,30.20,0.2,Calm,Calm,-,N/A,Fog,Light Freezing Fog,0,2013-05-28 07:30:00
3:52 AM,32.0,30.0,92,30.22,0.2,Calm,Calm,-,N/A,Fog,Fog,0,2013-05-28 07:52:00
4:06 AM,32.0,30.2,93,30.20,0.8,Calm,Calm,-,N/A,,Mist,0,2013-05-28 08:06:00
4:27 AM,30.2,28.4,93,30.21,1.5,Calm,Calm,-,N/A,,Overcast,0,2013-05-28 08:27:00
4:29 AM,30.2,28.4,93,30.21,4.0,Calm,Calm,-,N/A,,Overcast,0,2013-05-28 08:29:00
4:34 AM,30.2,30.2,100,30.21,1.8,Calm,Calm,-,N/A,,Overcast,0,2013-05-28 08:34:00
4:37 AM,30.2,30.2,100,30.21,0.8,Calm,Calm,-,N/A,,Mist,0,2013-05-28 08:37:00
4:52 AM,30.0,28.9,96,30.24,0.5,Calm,Calm,-,N/A,Fog,Light Freezing Fog,0,2013-05-28 08:52:00
5:01 AM,30.2,30.2,100,30.22,0.2,Calm,Calm,-,N/A,Fog,Light Freezing Fog,0,2013-05-28 09:01:00
5:52 AM,32.0,30.9,96,30.26,0.2,Calm,Calm,-,N/A,Fog,Fog,0,2013-05-28 09:52:00
6:52 AM,33.1,33.1,100,30.27,0.2,Calm,Calm,-,N/A,Fog,Fog,0,2013-05-28 10:52:00
7:06 AM,35.6,35.6,100,30.24,1.0,Calm,Calm,-,N/A,,Mist,0,2013-05-28 11:06:00
7:10 AM,35.6,35.6,100,30.24,4.0,Calm,Calm,-,N/A,,Mostly Cloudy,0,2013-05-28 11:10:00
7:21 AM,37.4,35.6,93,30.24,10.0,Calm,Calm,-,N/A,,Scattered Clouds,0,2013-05-28 11:21:00
7:52 AM,42.1,37.9,85,30.26,10.0,Calm,Calm,-,N/A,,Clear,0,2013-05-28 11:52:00
8:52 AM,54.0,39.0,57,30.25,10.0,Calm,Calm,-,N/A,,Clear,0,2013-05-28 12:52:00
9:52 AM,61.0,35.1,38,30.24,10.0,Calm,Calm,-,N/A,,Clear,0,2013-05-28 13:52:00
10:52 AM,66.9,37.0,33,30.24,10.0,Calm,Calm,-,N/A,,Clear,0,2013-05-28 14:52:00
11:52 AM,69.1,30.9,24,30.23,10.0,NNE,4.6,-,N/A,,Clear,20,2013-05-28 15:52:00
12:52 PM,69.1,34.0,27,30.22,10.0,SSW,5.8,-,N/A,,Clear,210,2013-05-28 16:52:00
1:52 PM,71.1,33.1,25,30.19,10.0,Calm,Calm,-,N/A,,Clear,0,2013-05-28 17:52:00
2:52 PM,72.0,33.1,24,30.17,10.0,Calm,Calm,-,N/A,,Clear,0,2013-05-28 18:52:00
3:52 PM,71.1,39.0,31,30.17,10.0,SE,8.1,-,N/A,,Clear,140,2013-05-28 19:52:00
4:52 PM,71.1,39.0,31,30.16,10.0,SSE,10.4,-,N/A,,Clear,160,2013-05-28 20:52:00
5:52 PM,70.0,37.0,30,30.15,10.0,SSE,8.1,-,N/A,,Clear,160,2013-05-28 21:52:00
6:52 PM,68.0,37.0,32,30.15,10.0,SSE,8.1,-,N/A,,Clear,160,2013-05-28 22:52:00
7:52 PM,64.9,37.0,36,30.15,10.0,SSE,6.9,-,N/A,,Clear,160,2013-05-28 23:52:00
8:52 PM,60.1,39.9,47,30.17,10.0,SSE,5.8,-,N/A,,Clear,160,2013-05-29 00:52:00
9:52 PM,52.0,43.0,71,30.18,10.0,Calm,Calm,-,N/A,,Clear,0,2013-05-29 01:52:00
10:52 PM,50.0,42.1,74,30.18,10.0,Calm,Calm,-,N/A,,Clear,0,2013-05-29 02:52:00
11:52 PM,48.9,43.0,80,30.18,10.0,Calm,Calm,-,N/A,,Clear,0,2013-05-29 03:52:00